| time (UTC) | temp C | wind direction | speed KPH | gust KPH | rain 1hr cm | rain 24hr cm | rain mn cm | humidity % | barometer mb |
| 20260506014504 | 14 | 192 | 11.3 | 22.5 | 0.00 | 0.00 | 0.00 | 86 | 1012.2 |
| 20260506013603 | 14 | 188 | 9.7 | 22.5 | 0.00 | 0.00 | 0.00 | 86 | 1012.2 |
| 20260506012703 | 14 | 192 | 9.7 | 17.7 | 0.00 | 0.00 | 0.00 | 85 | 1012.0 |
| 20260506011803 | 14 | 190 | 9.7 | 17.7 | 0.00 | 0.00 | 0.00 | 85 | 1011.9 |
| 20260506010903 | 14 | 189 | 9.7 | 17.7 | 0.00 | 0.00 | 0.00 | 85 | 1012.0 |
| 20260506010217 | 14 | 185 | 9.7 | 20.9 | 0.00 | 0.00 | 0.00 | 84 | 1011.9 |
| 20260506005403 | 14 | 191 | 11.3 | 22.5 | 0.00 | 0.00 | 0.00 | 84 | 1011.6 |
| 20260506004503 | 14 | 193 | 11.3 | 24.1 | 0.00 | 0.00 | 0.00 | 84 | 1012.0 |
| 20260506003603 | 14 | 188 | 11.3 | 25.7 | 0.00 | 0.00 | 0.00 | 84 | 1011.7 |
| 20260506002920 | 15 | 179 | 11.3 | 27.4 | 0.00 | 0.00 | 0.00 | 83 | 1011.6 |
| 20260506002018 | 15 | 185 | 12.9 | 29.0 | 0.00 | 0.00 | 0.00 | 82 | 1011.3 |
| 20260506000903 | 15 | 200 | 14.5 | 29.0 | 0.00 | 0.00 | 0.00 | 82 | 1011.2 |
| 20260506000003 | 15 | 189 | 14.5 | 29.0 | 0.00 | 0.00 | 0.00 | 82 | 1011.3 |
| 20260505235403 | 15 | 193 | 14.5 | 27.4 | 0.00 | 0.00 | 0.00 | 82 | 1010.9 |
| 20260505234721 | 15 | 194 | 14.5 | 27.4 | 0.00 | 0.00 | 0.00 | 81 | 1010.9 |
| 20260505233603 | 15 | 183 | 14.5 | 27.4 | 0.00 | 0.00 | 0.00 | 80 | 1010.5 |
| 20260505232703 | 15 | 190 | 14.5 | 27.4 | 0.00 | 0.00 | 0.00 | 80 | 1010.4 |
| 20260505231803 | 16 | 193 | 12.9 | 27.4 | 0.00 | 0.00 | 0.00 | 79 | 1010.1 |
| 20260505230903 | 15 | 188 | 12.9 | 27.4 | 0.00 | 0.00 | 0.00 | 80 | 1010.1 |
| 20260505230003 | 15 | 191 | 12.9 | 25.7 | 0.00 | 0.00 | 0.00 | 80 | 1010.0 |
| 20260505225403 | 15 | 193 | 14.5 | 25.7 | 0.00 | 0.00 | 0.00 | 80 | 1010.2 |
| 20260505224503 | 15 | 188 | 12.9 | 30.6 | 0.00 | 0.00 | 0.00 | 80 | 1009.9 |
| 20260505223603 | 16 | 178 | 12.9 | 24.1 | 0.00 | 0.00 | 0.00 | 79 | 1010.0 |
| 20260505222703 | 16 | 186 | 11.3 | 20.9 | 0.00 | 0.00 | 0.00 | 79 | 1009.6 |
| 20260505221803 | 16 | 181 | 11.3 | 20.9 | 0.00 | 0.00 | 0.00 | 79 | 1010.0 |
| 20260505220903 | 16 | 181 | 11.3 | 20.9 | 0.00 | 0.00 | 0.00 | 79 | 1009.8 |
| 20260505220004 | 16 | 186 | 11.3 | 27.4 | 0.00 | 0.00 | 0.00 | 79 | 1010.0 |
| 20260505215403 | 16 | 185 | 11.3 | 24.1 | 0.00 | 0.00 | 0.00 | 79 | 1009.7 |
| 20260505214503 | 16 | 187 | 11.3 | 24.1 | 0.00 | 0.00 | 0.00 | 78 | 1010.0 |
| 20260505213820 | 16 | 181 | 11.3 | 25.7 | 0.00 | 0.00 | 0.00 | 78 | 1009.9 |
| 20260505212703 | 16 | 184 | 11.3 | 24.1 | 0.00 | 0.00 | 0.00 | 78 | 1009.7 |
| 20260505211803 | 16 | 177 | 11.3 | 24.1 | 0.00 | 0.00 | 0.00 | 78 | 1009.4 |
| 20260505210903 | 16 | 185 | 11.3 | 25.7 | 0.00 | 0.00 | 0.00 | 78 | 1009.4 |
| 20260505210003 | 16 | 192 | 11.3 | 22.5 | 0.00 | 0.00 | 0.00 | 79 | 1009.6 |
| 20260505205621 | 16 | 192 | 11.3 | 22.5 | 0.00 | 0.00 | 0.00 | 79 | 1009.8 |
| 20260505204718 | 15 | 188 | 11.3 | 22.5 | 0.00 | 0.00 | 0.00 | 81 | 1009.6 |
| 20260505203603 | 15 | 183 | 11.3 | 22.5 | 0.00 | 0.00 | 0.00 | 80 | 1009.4 |
| 20260505202703 | 16 | 178 | 11.3 | 20.9 | 0.00 | 0.00 | 0.00 | 79 | 1009.6 |
| 20260505201803 | 16 | 181 | 9.7 | 17.7 | 0.00 | 0.00 | 0.00 | 79 | 1009.7 |
| 20260505200903 | 16 | 184 | 9.7 | 20.9 | 0.00 | 0.00 | 0.00 | 79 | 1009.6 |
| 20260505200003 | 16 | 178 | 9.7 | 22.5 | 0.00 | 0.00 | 0.00 | 78 | 1010.0 |
| 20260505195403 | 16 | 176 | 9.7 | 22.5 | 0.00 | 0.00 | 0.00 | 79 | 1009.7 |
| 20260505194503 | 16 | 187 | 9.7 | 22.5 | 0.00 | 0.00 | 0.00 | 78 | 1009.9 |
| 20260505193603 | 16 | 182 | 9.7 | 17.7 | 0.00 | 0.00 | 0.00 | 78 | 1010.2 |
| 20260505192918 | 16 | 184 | 8.0 | 17.7 | 0.00 | 0.00 | 0.00 | 78 | 1010.3 |
| 20260505192021 | 16 | 188 | 8.0 | 16.1 | 0.00 | 0.00 | 0.00 | 79 | 1010.7 |
| 20260505191118 | 16 | 190 | 9.7 | 17.7 | 0.00 | 0.00 | 0.00 | 78 | 1010.8 |
| 20260505190004 | 16 | 193 | 9.7 | 16.1 | 0.00 | 0.00 | 0.00 | 79 | 1010.7 |
| 20260505185617 | 16 | 193 | 9.7 | 16.1 | 0.00 | 0.00 | 0.00 | 79 | 1011.0 |
| 20260505184503 | 16 | 180 | 8.0 | 16.1 | 0.00 | 0.00 | 0.00 | 79 | 1011.1 |
| 20260505183603 | 16 | 175 | 8.0 | 16.1 | 0.00 | 0.00 | 0.00 | 80 | 1011.4 |
| 20260505182703 | 16 | 183 | 8.0 | 16.1 | 0.00 | 0.00 | 0.00 | 79 | 1011.3 |
| 20260505181803 | 16 | 178 | 8.0 | 16.1 | 0.00 | 0.00 | 0.00 | 79 | 1011.2 |
| 20260505180903 | 16 | 187 | 8.0 | 16.1 | 0.00 | 0.00 | 0.00 | 80 | 1011.5 |
| 20260505180221 | 16 | 189 | 6.4 | 16.1 | 0.00 | 0.00 | 0.00 | 80 | 1011.7 |
| 20260505175403 | 16 | 179 | 6.4 | 14.5 | 0.00 | 0.00 | 0.00 | 79 | 1011.8 |
| 20260505174503 | 16 | 187 | 6.4 | 14.5 | 0.00 | 0.00 | 0.00 | 81 | 1011.9 |
| 20260505173603 | 16 | 193 | 6.4 | 12.9 | 0.00 | 0.00 | 0.00 | 80 | 1012.0 |
| 20260505172703 | 16 | 187 | 4.8 | 9.7 | 0.00 | 0.00 | 0.00 | 80 | 1012.2 |
| 20260505171803 | 16 | 182 | 4.8 | 11.3 | 0.00 | 0.00 | 0.00 | 81 | 1012.3 |
| 20260505170903 | 16 | 183 | 4.8 | 9.7 | 0.00 | 0.00 | 0.00 | 81 | 1012.2 |
| 20260505170003 | 16 | 191 | 6.4 | 12.9 | 0.00 | 0.00 | 0.00 | 82 | 1012.2 |
| 20260505165403 | 15 | 186 | 4.8 | 12.9 | 0.00 | 0.00 | 0.00 | 82 | 1012.4 |
| 20260505164503 | 15 | 183 | 4.8 | 12.9 | 0.00 | 0.00 | 0.00 | 82 | 1012.4 |
| 20260505163603 | 15 | 191 | 6.4 | 11.3 | 0.00 | 0.00 | 0.00 | 81 | 1012.5 |
| 20260505162703 | 16 | 186 | 4.8 | 11.3 | 0.00 | 0.00 | 0.00 | 80 | 1012.5 |
| 20260505161803 | 16 | 197 | 6.4 | 11.3 | 0.00 | 0.00 | 0.00 | 80 | 1012.7 |
| 20260505160903 | 16 | 189 | 6.4 | 11.3 | 0.00 | 0.00 | 0.00 | 80 | 1012.9 |
| 20260505152703 | 16 | 187 | 4.8 | 9.7 | 0.00 | 0.00 | 0.00 | 80 | 1013.0 |
| 20260505151803 | 16 | 186 | 3.2 | 6.4 | 0.00 | 0.00 | 0.00 | 79 | 1013.1 |
| 20260505151120 | 16 | 190 | 4.8 | 6.4 | 0.00 | 0.00 | 0.00 | 81 | 1013.1 |
| 20260505124718 | 15 | 160 | 1.6 | 4.8 | 0.00 | 0.00 | 0.00 | 83 | 1013.0 |
| 20260505123603 | 15 | 151 | 1.6 | 3.2 | 0.00 | 0.00 | 0.00 | 81 | 1012.8 |
| 20260505122703 | 15 | 152 | 0.0 | 3.2 | 0.00 | 0.00 | 0.00 | 82 | 1012.8 |
| 20260505121803 | 15 | 0 | 0.0 | 0.0 | 0.00 | 0.00 | 0.00 | 86 | 1012.7 |
| 20260505120903 | 13 | 0 | 0.0 | 0.0 | 0.00 | 0.00 | 0.00 | 88 | 1012.8 |
| 20260505120220 | 13 | 166 | 0.0 | 3.2 | 0.00 | 0.00 | 0.00 | 90 | 1012.7 |
| 20260505115403 | 13 | 173 | 0.0 | 3.2 | 0.00 | 0.00 | 0.00 | 89 | 1012.8 |
| 20260505114503 | 13 | 149 | 0.0 | 1.6 | 0.00 | 0.00 | 0.00 | 89 | 1013.1 |
| 20260505113603 | 13 | 160 | 0.0 | 1.6 | 0.00 | 0.00 | 0.00 | 90 | 1012.9 |
| 20260505112918 | 13 | 148 | 0.0 | 1.6 | 0.00 | 0.00 | 0.00 | 91 | 1012.9 |
| 20260505111803 | 13 | 133 | 0.0 | 3.2 | 0.00 | 0.00 | 0.00 | 90 | 1012.7 |
| 20260505111118 | 13 | 149 | 0.0 | 3.2 | 0.00 | 0.00 | 0.00 | 91 | 1012.8 |
| 20260505101803 | 11 | 179 | 1.6 | 3.2 | 0.00 | 0.00 | 0.00 | 96 | 1012.0 |
| 20260505101118 | 11 | 182 | 3.2 | 4.8 | 0.00 | 0.00 | 0.00 | 96 | 1012.0 |
| 20260505100003 | 11 | 184 | 3.2 | 4.8 | 0.00 | 0.00 | 0.00 | 96 | 1012.0 |
| 20260505095404 | 11 | 181 | 3.2 | 6.4 | 0.00 | 0.00 | 0.00 | 96 | 1011.8 |
| 20260505094720 | 11 | 175 | 1.6 | 4.8 | 0.00 | 0.00 | 0.00 | 96 | 1011.7 |
| 20260505093603 | 11 | 172 | 1.6 | 4.8 | 0.00 | 0.00 | 0.00 | 96 | 1011.8 |
| 20260505092703 | 11 | 178 | 3.2 | 4.8 | 0.00 | 0.00 | 0.00 | 96 | 1011.9 |
| 20260505092017 | 11 | 178 | 3.2 | 4.8 | 0.00 | 0.00 | 0.00 | 96 | 1011.7 |
| 20260505090903 | 11 | 172 | 1.6 | 3.2 | 0.00 | 0.00 | 0.00 | 96 | 1011.9 |
| 20260505090217 | 11 | 170 | 1.6 | 3.2 | 0.00 | 0.00 | 0.00 | 96 | 1011.8 |
| 20260505085403 | 11 | 176 | 1.6 | 3.2 | 0.00 | 0.00 | 0.00 | 96 | 1011.9 |
| 20260505084503 | 11 | 179 | 3.2 | 4.8 | 0.00 | 0.00 | 0.00 | 96 | 1011.8 |
| 20260505083603 | 11 | 173 | 1.6 | 3.2 | 0.00 | 0.00 | 0.00 | 95 | 1011.5 |
| 20260505082703 | 11 | 171 | 1.6 | 3.2 | 0.00 | 0.00 | 0.00 | 95 | 1011.8 |
| 20260505082017 | 11 | 177 | 1.6 | 6.4 | 0.00 | 0.00 | 0.00 | 95 | 1011.8 |
| 20260505081120 | 11 | 173 | 1.6 | 4.8 | 0.00 | 0.00 | 0.00 | 95 | 1012.0 |
| 20260505080003 | 11 | 179 | 3.2 | 4.8 | 0.00 | 0.00 | 0.00 | 95 | 1011.7 |
| 20260505075403 | 11 | 186 | 3.2 | 4.8 | 0.00 | 0.00 | 0.00 | 95 | 1011.9 |
| 20260505074503 | 11 | 184 | 3.2 | 6.4 | 0.00 | 0.00 | 0.00 | 94 | 1011.8 |
| 20260505073603 | 11 | 189 | 3.2 | 6.4 | 0.00 | 0.00 | 0.00 | 94 | 1011.8 |
| 20260505072703 | 11 | 191 | 3.2 | 6.4 | 0.00 | 0.00 | 0.00 | 94 | 1011.8 |
| 20260505071803 | 11 | 188 | 3.2 | 6.4 | 0.00 | 0.00 | 0.00 | 94 | 1011.8 |
| 20260505070903 | 11 | 193 | 3.2 | 6.4 | 0.00 | 0.00 | 0.00 | 94 | 1011.9 |
| 20260505070003 | 12 | 191 | 3.2 | 9.7 | 0.00 | 0.00 | 0.00 | 94 | 1011.8 |
| 20260505065403 | 12 | 190 | 3.2 | 9.7 | 0.00 | 0.00 | 0.00 | 94 | 1011.7 |
| 20260505064503 | 12 | 190 | 3.2 | 6.4 | 0.00 | 0.00 | 0.00 | 93 | 1011.9 |
| 20260505063603 | 11 | 181 | 3.2 | 6.4 | 0.00 | 0.00 | 0.00 | 93 | 1012.0 |
| 20260505062703 | 12 | 184 | 3.2 | 6.4 | 0.00 | 0.00 | 0.00 | 93 | 1012.1 |
| 20260505061803 | 12 | 185 | 4.8 | 9.7 | 0.00 | 0.00 | 0.00 | 93 | 1012.0 |
| 20260505060903 | 12 | 182 | 4.8 | 9.7 | 0.00 | 0.00 | 0.00 | 93 | 1012.0 |
| 20260505060003 | 12 | 178 | 3.2 | 6.4 | 0.00 | 0.00 | 0.00 | 93 | 1012.0 |
| 20260505055403 | 12 | 185 | 3.2 | 6.4 | 0.00 | 0.00 | 0.00 | 93 | 1012.2 |
| 20260505054503 | 12 | 186 | 4.8 | 9.7 | 0.00 | 0.00 | 0.00 | 93 | 1012.2 |
| 20260505053603 | 12 | 183 | 4.8 | 9.7 | 0.00 | 0.00 | 0.00 | 93 | 1012.2 |
| 20260505052703 | 12 | 189 | 4.8 | 9.7 | 0.00 | 0.00 | 0.00 | 93 | 1012.3 |
| 20260505051803 | 12 | 186 | 4.8 | 11.3 | 0.00 | 0.00 | 0.00 | 92 | 1012.4 |
| 20260505050903 | 12 | 183 | 4.8 | 11.3 | 0.00 | 0.00 | 0.00 | 92 | 1012.4 |
| 20260505040903 | 12 | 187 | 4.8 | 9.7 | 0.00 | 0.00 | 0.00 | 89 | 1012.6 |
| 20260505040004 | 12 | 188 | 4.8 | 11.3 | 0.00 | 0.00 | 0.00 | 89 | 1012.7 |
| 20260505035403 | 12 | 187 | 4.8 | 11.3 | 0.00 | 0.00 | 0.00 | 89 | 1012.6 |
| 20260505034503 | 12 | 183 | 4.8 | 11.3 | 0.00 | 0.00 | 0.00 | 89 | 1012.5 |
| 20260505033603 | 12 | 184 | 4.8 | 11.3 | 0.00 | 0.00 | 0.00 | 89 | 1012.6 |
| 20260505032703 | 12 | 186 | 4.8 | 9.7 | 0.00 | 0.00 | 0.00 | 89 | 1012.6 |
| 20260505031803 | 12 | 187 | 4.8 | 9.7 | 0.00 | 0.00 | 0.00 | 89 | 1012.5 |
| 20260505030903 | 12 | 191 | 4.8 | 9.7 | 0.00 | 0.00 | 0.00 | 89 | 1012.7 |
| 20260505030221 | 13 | 191 | 6.4 | 11.3 | 0.00 | 0.00 | 0.00 | 88 | 1012.7 |
| 20260505025617 | 13 | 190 | 6.4 | 11.3 | 0.00 | 0.00 | 0.00 | 88 | 1012.6 |
| 20260505024503 | 13 | 190 | 4.8 | 11.3 | 0.00 | 0.00 | 0.00 | 87 | 1012.7 |
| 20260505023603 | 12 | 189 | 4.8 | 9.7 | 0.00 | 0.00 | 0.00 | 88 | 1012.8 |
| 20260505022703 | 12 | 190 | 6.4 | 11.3 | 0.00 | 0.00 | 0.00 | 88 | 1012.7 |
| 20260505022016 | 13 | 189 | 4.8 | 9.7 | 0.00 | 0.00 | 0.00 | 88 | 1012.7 |
| 20260505021119 | 13 | 191 | 6.4 | 11.3 | 0.00 | 0.00 | 0.00 | 88 | 1012.7 |
| 20260505020221 | 13 | 194 | 6.4 | 11.3 | 0.00 | 0.00 | 0.00 | 88 | 1012.9 |
| 20260505015617 | 12 | 195 | 6.4 | 12.9 | 0.00 | 0.00 | 0.00 | 88 | 1012.7 |